Hazen, ND

3:02 AM CDT on July 22, 2017 (GMT -0500)
Mercer County Regional

Weather History for KHZE - October, 2012

Change the Weather History Date:

Wednesday, October 17, 2012

  Actual Average (KN60) Record (KN60)
Temperature  
Mean Temperature 47 °F -  
Max Temperature 53 °F 52 °F 77 °F (2003)
Min Temperature 41 °F 30 °F 19 °F (1999)
Degree Days  
Heating Degree Days 18    
Moisture  
Dew Point 36 °F    
Average Humidity 73    
Maximum Humidity 93    
Minimum Humidity 50    
Precipitation  
Precipitation 0.21 in - - ()
Sea Level Pressure  
Sea Level Pressure 29.39 in    
Wind  
Wind Speed 25 mph (WNW)    
Max Wind Speed 44 mph    
Max Gust Speed 59 mph    
Visibility 9 miles    
Events Rain    
Averages and records for this station are not official NWS values.
T = Trace of Precipitation, MM = Missing Value Source: NWS Daily Summary

Daily Weather History Graph

Daily Weather History Graph

Search for Another Location

Airport or City:

Trip Planner

Search our weather history database for the weather conditions in past years. The results will help you decide how hot, cold, wet, or windy it might be!

Date:

Astronomy

Oct. 17, 2012 Rise Set
Actual Time 8:08 AM CDT 6:53 PM CDT
Civil Twilight 7:37 AM CDT 7:24 PM CDT
Nautical Twilight 7:01 AM CDT 8:00 PM CDT
Astronomical Twilight 6:26 AM CDT 8:35 PM CDT
Moon 10:57 AM CDT (10/17) 8:18 PM CDT (10/17)
Length of Visible Light 11h 47m
Length of Day
10h 45m
Waxing Crescent, 7% of the Moon is Illuminated
Oct 17
Waxing Crescent
Oct 21
First Quarter
Oct 29
Full
Nov 6
Last Quarter
Nov 13
New

Hourly Weather History & Observations

Time (CDT) Temp. Windchill Dew Point Humidity Pressure Visibility Wind Dir Wind Speed Gust Speed Precip Events Conditions
12:15 AM 53.6 °F - 44.6 °F 72% 29.29 in 10.0 mi West 16.1 mph 24.2 mph N/A   Overcast
12:35 AM 51.8 °F - 44.6 °F 76% 29.29 in 10.0 mi West 15.0 mph - N/A   Overcast
12:55 AM 51.8 °F - 42.8 °F 71% 29.30 in 10.0 mi West 18.4 mph 23.0 mph N/A   Overcast
1:15 AM 51.8 °F - 41.0 °F 67% 29.29 in 10.0 mi West 16.1 mph 21.9 mph N/A   Overcast
1:35 AM 50.0 °F - 39.2 °F 66% 29.30 in 10.0 mi West 19.6 mph 29.9 mph N/A   Overcast
1:55 AM 50.0 °F - 39.2 °F 66% 29.29 in 10.0 mi West 20.7 mph 25.3 mph N/A   Overcast
2:15 AM 50.0 °F - 39.2 °F 66% 29.30 in 10.0 mi West 16.1 mph - N/A   Overcast
2:35 AM 48.2 °F - 39.2 °F 71% 29.30 in 10.0 mi West 18.4 mph 25.3 mph N/A   Overcast
2:55 AM 48.2 °F - 39.2 °F 71% 29.29 in 10.0 mi West 15.0 mph 25.3 mph N/A   Mostly Cloudy
3:15 AM 48.2 °F - 37.4 °F 66% 29.28 in 10.0 mi West 20.7 mph 29.9 mph N/A   Partly Cloudy
3:35 AM 46.4 °F 39.5 °F 37.4 °F 71% 29.27 in 10.0 mi West 17.3 mph 23.0 mph N/A   Partly Cloudy
3:55 AM 48.2 °F - 39.2 °F 71% 29.27 in 10.0 mi West 26.5 mph 35.7 mph N/A   Mostly Cloudy
4:15 AM 48.2 °F - 39.2 °F 71% 29.27 in 10.0 mi West 23.0 mph 33.4 mph N/A   Overcast
4:35 AM 46.4 °F 39.2 °F 39.2 °F 76% 29.27 in 10.0 mi West 18.4 mph 28.8 mph N/A   Overcast
4:55 AM 46.4 °F 39.5 °F 39.2 °F 76% 29.27 in 10.0 mi West 17.3 mph 24.2 mph N/A   Overcast
5:15 AM 46.4 °F 38.5 °F 39.2 °F 76% 29.27 in 10.0 mi West 21.9 mph 27.6 mph N/A   Overcast
5:35 AM 46.4 °F 40.1 °F 39.2 °F 76% 29.27 in 10.0 mi West 15.0 mph 20.7 mph N/A   Overcast
5:55 AM 46.4 °F 38.5 °F 41.0 °F 81% 29.27 in 10.0 mi West 21.9 mph - N/A   Overcast
6:15 AM 46.4 °F 37.4 °F 41.0 °F 81% 29.27 in 5.0 mi WNW 28.8 mph 38.0 mph N/A Rain Light Rain
6:35 AM 46.4 °F 37.7 °F 41.0 °F 81% 29.29 in 10.0 mi WNW 26.5 mph 36.8 mph N/A   Overcast
6:55 AM 46.4 °F 37.4 °F 39.2 °F 76% 29.31 in 10.0 mi NW 28.8 mph 43.7 mph N/A   Overcast
7:15 AM 44.6 °F 35.9 °F 39.2 °F 81% 29.32 in 9.0 mi WNW 23.0 mph 36.8 mph N/A   Overcast
7:35 AM 44.6 °F 34.4 °F 39.2 °F 81% 29.32 in 7.0 mi NW 32.2 mph 46.0 mph N/A Rain Light Rain
7:55 AM 44.6 °F 34.4 °F 39.2 °F 81% 29.34 in 9.0 mi NW 32.2 mph 47.2 mph N/A Rain Light Rain
8:15 AM 41.0 °F 30.9 °F 39.2 °F 93% 29.35 in 5.0 mi WNW 24.2 mph 39.1 mph N/A Rain Light Rain
8:35 AM 41.0 °F 30.5 °F 39.2 °F 93% 29.36 in 7.0 mi WNW 26.5 mph 39.1 mph 0.01 in Rain Light Rain
8:55 AM 41.0 °F 30.0 °F 37.4 °F 87% 29.37 in 8.0 mi WNW 28.8 mph 36.8 mph 0.01 in Rain Light Rain
9:15 AM 41.0 °F 29.5 °F 37.4 °F 87% 29.37 in 9.0 mi WNW 32.2 mph 43.7 mph N/A Rain Light Rain
9:35 AM 41.0 °F 29.8 °F 35.6 °F 81% 29.38 in 10.0 mi WNW 29.9 mph 42.6 mph N/A Rain Light Rain
9:55 AM 41.0 °F 30.0 °F 37.4 °F 87% 29.39 in 5.0 mi WNW 28.8 mph 39.1 mph 0.01 in Rain Light Rain
10:15 AM 41.0 °F 29.7 °F 35.6 °F 81% 29.39 in 6.0 mi WNW 31.1 mph 43.7 mph 0.01 in Rain Light Rain
10:35 AM 41.0 °F 29.8 °F 35.6 °F 81% 29.40 in 7.0 mi WNW 29.9 mph 40.3 mph 0.02 in Rain Light Rain
10:55 AM 41.0 °F 30.0 °F 35.6 °F 81% 29.40 in 8.0 mi WNW 28.8 mph 42.6 mph 0.03 in Rain Light Rain
11:15 AM 41.0 °F 30.9 °F 35.6 °F 81% 29.41 in 6.0 mi WNW 24.2 mph 46.0 mph N/A Rain Light Rain
11:35 AM 41.0 °F 30.5 °F 35.6 °F 81% 29.41 in 7.0 mi WNW 26.5 mph 39.1 mph 0.01 in Rain Light Rain
11:55 AM 41.0 °F 29.7 °F 35.6 °F 81% 29.41 in 7.0 mi WNW 31.1 mph 41.4 mph 0.03 in Rain Light Rain
12:15 PM 41.0 °F 30.5 °F 35.6 °F 81% 29.41 in 7.0 mi WNW 26.5 mph 40.3 mph 0.01 in Rain Light Rain
12:35 PM 41.0 °F 30.5 °F 35.6 °F 81% 29.41 in 10.0 mi WNW 26.5 mph 35.7 mph 0.01 in Rain Light Rain
1:15 PM 44.6 °F 34.2 °F 33.8 °F 66% 29.41 in 10.0 mi WNW 33.4 mph 42.6 mph N/A   Mostly Cloudy
1:35 PM 44.6 °F 35.3 °F 33.8 °F 66% 29.41 in 10.0 mi WNW 26.5 mph 42.6 mph N/A   Mostly Cloudy
1:55 PM 44.6 °F 35.1 °F 32.0 °F 61% 29.41 in 10.0 mi WNW 27.6 mph 38.0 mph N/A   Mostly Cloudy
2:15 PM 46.4 °F 36.3 °F 32.0 °F 57% 29.41 in 10.0 mi WNW 36.8 mph 47.2 mph N/A   Overcast
2:35 PM 46.4 °F 37.4 °F 30.2 °F 53% 29.41 in 10.0 mi WNW 28.8 mph 46.0 mph N/A   Mostly Cloudy
2:55 PM 46.4 °F 36.5 °F 30.2 °F 53% 29.41 in 10.0 mi NW 34.5 mph 50.6 mph N/A   Mostly Cloudy
3:15 PM 46.4 °F 35.7 °F 30.2 °F 53% 29.41 in 10.0 mi NW 41.4 mph 50.6 mph N/A   Partly Cloudy
3:35 PM 46.4 °F 35.7 °F 28.4 °F 50% 29.42 in 10.0 mi NW 41.4 mph 52.9 mph N/A   Scattered Clouds
3:55 PM 46.4 °F 36.0 °F 28.4 °F 50% 29.43 in 10.0 mi NW 39.1 mph 58.7 mph N/A   Mostly Cloudy
4:15 PM 46.4 °F 35.6 °F 32.0 °F 57% 29.43 in 10.0 mi NW 42.6 mph 56.4 mph N/A   Mostly Cloudy
4:35 PM 44.6 °F 35.5 °F 33.8 °F 66% 29.45 in 10.0 mi NW 25.3 mph 52.9 mph N/A Rain Light Rain
4:55 PM 44.6 °F 34.7 °F 33.8 °F 66% 29.46 in 10.0 mi NW 29.9 mph 46.0 mph N/A Rain Light Rain
5:15 PM 44.6 °F 34.7 °F 33.8 °F 66% 29.46 in 10.0 mi NW 29.9 mph 49.5 mph N/A Rain Light Rain
5:35 PM 42.8 °F 32.5 °F 35.6 °F 76% 29.47 in 8.0 mi NW 28.8 mph 40.3 mph N/A Rain Light Rain
5:55 PM 42.8 °F 31.9 °F 35.6 °F 76% 29.48 in 9.0 mi NW 32.2 mph 40.3 mph 0.01 in   Overcast
6:15 PM 41.0 °F 28.6 °F 37.4 °F 87% 29.48 in 7.0 mi NW 38.0 mph 49.5 mph N/A   Overcast
6:35 PM 41.0 °F 29.7 °F 37.4 °F 87% 29.49 in 7.0 mi NW 31.1 mph 43.7 mph 0.01 in   Overcast
6:55 PM 41.0 °F 30.9 °F 37.4 °F 87% 29.50 in 9.0 mi NW 24.2 mph 42.6 mph 0.02 in Rain Light Rain
7:15 PM 41.0 °F 28.8 °F 35.6 °F 81% 29.50 in 10.0 mi NW 36.8 mph 50.6 mph N/A   Overcast
7:35 PM 42.8 °F 32.9 °F 35.6 °F 76% 29.51 in 10.0 mi NW 26.5 mph 44.9 mph N/A Rain Light Rain
7:55 PM 41.0 °F 29.8 °F 35.6 °F 81% 29.51 in 10.0 mi NW 29.9 mph 48.3 mph N/A   Overcast
8:15 PM 41.0 °F 29.7 °F 35.6 °F 81% 29.51 in 10.0 mi NW 31.1 mph 42.6 mph N/A   Overcast
8:35 PM 42.8 °F 31.1 °F 35.6 °F 76% 29.51 in 10.0 mi NW 38.0 mph 52.9 mph N/A   Overcast
8:55 PM 42.8 °F 31.1 °F 33.8 °F 70% 29.51 in 10.0 mi NW 38.0 mph 49.5 mph 0.01 in   Overcast
9:15 PM 42.8 °F 30.4 °F 33.8 °F 70% 29.51 in 10.0 mi NW 43.7 mph 56.4 mph N/A   Overcast
9:35 PM 42.8 °F 32.5 °F 33.8 °F 70% 29.51 in 10.0 mi NW 28.8 mph 51.8 mph 0.01 in   Overcast
9:55 PM 42.8 °F 32.3 °F 33.8 °F 70% 29.51 in 10.0 mi NW 29.9 mph 50.6 mph 0.02 in   Overcast
10:15 PM 44.6 °F 33.6 °F 32.0 °F 61% 29.51 in 10.0 mi NW 38.0 mph 49.5 mph N/A   Overcast
10:35 PM 44.6 °F 34.2 °F 32.0 °F 61% 29.51 in 10.0 mi NW 33.4 mph 54.1 mph 0.01 in   Overcast
10:55 PM 44.6 °F 34.2 °F 32.0 °F 61% 29.52 in 10.0 mi NW 33.4 mph 56.4 mph 0.02 in   Overcast
11:15 PM 44.6 °F 33.8 °F 33.8 °F 66% 29.53 in 10.0 mi NW 36.8 mph 56.4 mph 0.01 in   Overcast
11:35 PM 44.6 °F 33.3 °F 33.8 °F 66% 29.52 in 10.0 mi NW 40.3 mph 55.2 mph 0.02 in   Overcast
11:55 PM 44.6 °F 33.9 °F 33.8 °F 66% 29.52 in 10.0 mi NW 35.7 mph 57.5 mph 0.04 in   Overcast